User: anonymous   Login
Location: Moscow
(55.7500°N, 37.5830°E)
Time: 11:48:41
(UTC+03:00)
Language:

FENGYUN 1C DEB - Orbit

View from above orbital plane
View from above orbital plane
View from above satellite
View from above satellite

Ground track
Ground track

The orbit data is extracted from the following two-line orbital elements,

1 32123U 99025CRR 22176.95667264  .00000583  00000-0  12159-3 0  9996
2 32123  98.8914 242.0990 0176157 192.0380 343.4368 14.55115149529315
Epoch (UTC): 25 June 2022 22:57:36
Eccentricity: 0.0176157
inclination: 98.8914°
perigee height: 584 km
apogee height: 834 km
right ascension of ascending node: 242.0990°
argument of perigee: 192.0380°
revolutions per day: 14.55115149
mean anomaly at epoch: 343.4368°
orbit number at epoch: 52931

The dashed part of the orbit path shows where the satellite is in the earth's shadow,  

DLR